Regional Weather Roundup
Issued by NWS Spokane, WA

Home | Current Version | Previous Version | Text Only | Print | Product List | Glossary On
Versions: 1 2 3 4 5 6 7 8 9 10 11 12 13 14 15 16 17 18 19 20 21 22 23 24 25 26 27 28 29 30 31 32 33 34 35 36 37 38 39 40 41 42 43 44 45 46 47 48 49 50
000
NZUS01 KOTX 230610
RWROTX

Eastern Washington/Northern Idaho Roundup
National Weather Service, Spokane WA
1100 PM PDT FRI SEP 22 2017

Note: "fair" indicated few or no clouds below 12,000 feet with no
significant weather and/or obstructions to visibility.

...Northeast Washington and Northern Idaho Panhandle...

CITY           SKY/WX    TMP DP  RH WIND       PRES   REMARKS
Spokane Intl   MOCLDY    48  39  71 S8        30.01S
Spokane Downto CLOUDY    47  41  80 NE5       30.02R
Coeur d Alene  MOCLDY    45  39  79 E3        30.02S
Deer Park      CLOUDY    45  40  82 CALM      30.02R
Sandpoint      CLOUDY    46  37  71 CALM      30.01F
Bonners Ferry  CLOUDY    45  37  76 CALM      30.01F

...Southeast Washington and southern Idaho Panhandle...

CITY           SKY/WX    TMP DP  RH WIND       PRES   REMARKS
Walla Walla    CLOUDY    56  41  57 SE8       30.02S
Pullman/Moscow CLOUDY    45  40  82 CALM      30.04S
Lewiston       MOCLDY    48  42  80 SE3       30.03S
Lowell           N/A     47  42  83 CALM      30.07S
Grangeville    CLOUDY    43  41  93 CALM      30.04S

...Columbia Basin...

CITY           SKY/WX    TMP DP  RH WIND       PRES   REMARKS
Ephrata        CLOUDY    50  36  58 NW5       30.00R
Moses Lake     CLOUDY    54  40  59 CALM      30.00S
Pasco          CLOUDY    57  45  64 SE10      30.03R
Richland       CLOUDY    57  46  64 SE5       30.02S
Hermiston      PTCLDY    49  44  83 SE6       30.02S
Pendleton      PTCLDY    47  40  76 SE9       30.03S

...East Slopes Cascades...

CITY           SKY/WX    TMP DP  RH WIND       PRES   REMARKS
The Dalles     CLOUDY    59  48  67 NW12      30.03R
Yakima         CLOUDY    53  44  71 W6        30.02S
Ellensburg     CLOUDY    51  43  74 W5        30.01S
Stampede Pass  CLOUDY    43  42  97 SW3       30.06F FOG
Wenatchee      CLOUDY    57  40  52 NE5       29.99S
Omak           MOCLDY    51  38  60 W3        29.99S
Sunnyside      MOCLDY    48  45  89 N3        30.02S

...Southern British Columbia...

CITY           SKY/WX    TMP DP  RH WIND       PRES   REMARKS
Penticton      MOCLDY    50  43  76 N3        29.96S
Cranbrook      CLOUDY    41  32  70 SE5       30.00F
Osoyoos          N/A     55  37  50 SE3         N/A
Creston          N/A     50  39  66 E6          N/A

...Western Montana...

CITY           SKY/WX    TMP DP  RH WIND       PRES   REMARKS
Libby            N/A     45  37  76 CALM      30.01S
Missoula       MOCLDY    34  32  92 NW5       30.08R WCI  30

...Neighboring Cities...

CITY           SKY/WX    TMP DP  RH WIND       PRES   REMARKS
Seattle        CLOUDY    58  48  69 S3        30.04S
Portland       CLOUDY    56  53  90 E5        30.06S
Boise          MOCLDY    42  38  85 CALM      30.01R
Great Falls    CLOUDY    36  34  92 NW7       30.08F
Calgary        CLOUDY    39  34  81 SE6       30.03S



USA.gov is the U.S. government's official web portal to all federal, state and local government web resources and services.